• en France
  • Liste des pays
  • À 7 jours
  • Température de l'eau
  • Carte satellitaire
  • Carte météo
  • Widgets météo
  • user-avatar
    Se connecter

    Météo par heure à Agafonovo

    Ce jour, 22 Juillet, Dimanche

    Heure Température Précipitation Vent Pression Humidité
    00:00 +20°C° 0 mm 1 m/s 750 mmHg 91%
    01:00 +19°C° 0 mm 1 m/s 750 mmHg 92%
    02:00 +19°C° 0 mm 1 m/s 750 mmHg 94%
    03:00 +19°C° 0 mm 1 m/s 751 mmHg 94%
    04:00 +19°C° 0 mm 1 m/s 751 mmHg 94%
    05:00 +19°C° 0 mm 1 m/s 751 mmHg 93%
    06:00 +21°C° 0 mm 1 m/s 751 mmHg 88%
    07:00 +23°C° 0 mm 1 m/s 751 mmHg 83%
    08:00 +24°C° 0 mm 1 m/s 752 mmHg 78%
    09:00 +25°C° 0,1 mm 1 m/s 752 mmHg 74%
    10:00 +26°C° 0,1 mm 1 m/s 752 mmHg 70%
    11:00 +27°C° 0,1 mm 1 m/s 751 mmHg 66%
    12:00 +27°C° 0,2 mm 1 m/s 751 mmHg 68%
    13:00 +27°C° 0,2 mm 1 m/s 751 mmHg 70%
    14:00 +27°C° 0,2 mm 1 m/s 751 mmHg 72%
    15:00 +27°C° 0,3 mm 1 m/s 751 mmHg 75%
    16:00 +26°C° 0,3 mm 1 m/s 751 mmHg 78%
    17:00 +26°C° 0,3 mm 1 m/s 751 mmHg 80%
    18:00 +25°C° 0,3 mm 1 m/s 752 mmHg 83%
    19:00 +24°C° 0,3 mm 1 m/s 752 mmHg 86%
    20:00 +23°C° 0,3 mm 1 m/s 752 mmHg 89%
    21:00 +22°C° 0,2 mm 1 m/s 752 mmHg 91%
    22:00 +22°C° 0,2 mm 1 m/s 752 mmHg 92%
    23:00 +19°C° 0,2 mm 0 m/s 752 mmHg 94%

    Demain, 23 Juillet, Lundi

    Heure Température Précipitation Vent Pression Humidité
    00:00 +21°C° 0,2 mm 1 m/s 752 mmHg 94%
    01:00 +21°C° 0,2 mm 1 m/s 752 mmHg 95%
    02:00 +21°C° 0,2 mm 1 m/s 753 mmHg 95%
    03:00 +21°C° 0,1 mm 1 m/s 753 mmHg 96%
    04:00 +20°C° 0,1 mm 1 m/s 753 mmHg 96%
    05:00 +20°C° 0,1 mm 1 m/s 753 mmHg 97%
    06:00 +21°C° 0,2 mm 1 m/s 753 mmHg 96%
    07:00 +22°C° 0,2 mm 1 m/s 753 mmHg 95%
    08:00 +22°C° 0,2 mm 1 m/s 753 mmHg 93%
    09:00 +23°C° 0,8 mm 2 m/s 753 mmHg 92%
    10:00 +23°C° 0,8 mm 2 m/s 753 mmHg 90%
    11:00 +24°C° 0,8 mm 2 m/s 753 mmHg 88%
    12:00 +25°C° 0,9 mm 2 m/s 753 mmHg 83%
    13:00 +25°C° 0,9 mm 2 m/s 753 mmHg 78%
    14:00 +26°C° 0,9 mm 2 m/s 753 mmHg 72%
    15:00 +26°C° 0,5 mm 2 m/s 753 mmHg 73%
    16:00 +26°C° 0,5 mm 1 m/s 753 mmHg 73%
    17:00 +26°C° 0,5 mm 1 m/s 753 mmHg 73%
    18:00 +25°C° 0,1 mm 1 m/s 753 mmHg 78%
    19:00 +24°C° 0,1 mm 1 m/s 753 mmHg 82%
    20:00 +23°C° 0,1 mm 1 m/s 753 mmHg 86%
    21:00 +22°C° 0 mm 1 m/s 754 mmHg 89%
    22:00 +21°C° 0 mm 1 m/s 754 mmHg 92%
    23:00 +20°C° 0 mm 1 m/s 754 mmHg 95%

    Après-demain, 24 Juillet, Mardi

    Heure Température Précipitation Vent Pression Humidité
    00:00 +19°C° 0 mm 1 m/s 754 mmHg 96%
    01:00 +19°C° 0 mm 1 m/s 754 mmHg 96%
    02:00 +18°C° 0 mm 1 m/s 754 mmHg 97%
    03:00 +18°C° 0 mm 1 m/s 754 mmHg 97%
    04:00 +18°C° 0 mm 1 m/s 754 mmHg 96%
    05:00 +18°C° 0 mm 1 m/s 755 mmHg 96%
    06:00 +20°C° 0 mm 1 m/s 755 mmHg 90%
    07:00 +20°C° 0 mm 2 m/s 755 mmHg 83%
    08:00 +23°C° 0 mm 2 m/s 755 mmHg 76%
    09:00 +24°C° 0 mm 2 m/s 755 mmHg 70%
    10:00 +25°C° 0 mm 2 m/s 755 mmHg 64%
    11:00 +26°C° 0 mm 3 m/s 755 mmHg 58%
    12:00 +27°C° 0 mm 3 m/s 754 mmHg 57%
    13:00 +27°C° 0 mm 3 m/s 754 mmHg 55%
    14:00 +28°C° 0 mm 3 m/s 754 mmHg 53%
    15:00 +28°C° 0 mm 3 m/s 754 mmHg 56%
    16:00 +27°C° 0 mm 3 m/s 754 mmHg 58%
    17:00 +27°C° 0 mm 3 m/s 754 mmHg 61%
    18:00 +25°C° 0,1 mm 3 m/s 754 mmHg 69%
    19:00 +24°C° 0,1 mm 3 m/s 755 mmHg 77%
    20:00 +21°C° 0,1 mm 2 m/s 755 mmHg 85%
    21:00 +20°C° 0 mm 2 m/s 755 mmHg 89%
    22:00 +20°C° 0 mm 2 m/s 755 mmHg 93%
    23:00 +19°C° 0 mm 2 m/s 755 mmHg 97%

    25 Juillet, Mercredi

    Heure Température Précipitation Vent Pression Humidité
    00:00 +18°C° 0 mm 2 m/s 755 mmHg 97%
    01:00 +18°C° 0 mm 2 m/s 755 mmHg 98%
    02:00 +17°C° 0 mm 2 m/s 755 mmHg 98%
    03:00 +18°C° 0 mm 2 m/s 755 mmHg 98%
    04:00 +18°C° 0 mm 2 m/s 755 mmHg 98%
    05:00 +18°C° 0 mm 2 m/s 755 mmHg 97%
    06:00 +19°C° 0,1 mm 3 m/s 756 mmHg 95%
    07:00 +20°C° 0,1 mm 3 m/s 756 mmHg 92%
    08:00 +21°C° 0,1 mm 3 m/s 756 mmHg 90%
    09:00 +22°C° 0,1 mm 3 m/s 756 mmHg 87%
    10:00 +24°C° 0,1 mm 3 m/s 756 mmHg 83%
    11:00 +25°C° 0,1 mm 3 m/s 756 mmHg 80%
    12:00 +25°C° 0,5 mm 3 m/s 756 mmHg 80%
    13:00 +26°C° 0,5 mm 3 m/s 756 mmHg 81%
    14:00 +26°C° 0,5 mm 3 m/s 756 mmHg 81%
    15:00 +26°C° 0,3 mm 3 m/s 756 mmHg 78%
    16:00 +26°C° 0,3 mm 3 m/s 756 mmHg 76%
    17:00 +26°C° 0,3 mm 3 m/s 756 mmHg 73%
    18:00 +25°C° 0 mm 3 m/s 756 mmHg 75%
    19:00 +24°C° 0 mm 2 m/s 756 mmHg 77%
    20:00 +21°C° 0 mm 2 m/s 756 mmHg 79%
    21:00 +21°C° 0 mm 2 m/s 756 mmHg 82%
    22:00 +20°C° 0 mm 2 m/s 756 mmHg 86%
    23:00 +19°C° 0 mm 2 m/s 756 mmHg 89%

    26 Juillet, Jeudi

    Heure Température Précipitation Vent Pression Humidité
    00:00 +19°C° 0 mm 2 m/s 756 mmHg 88%
    01:00 +18°C° 0 mm 2 m/s 756 mmHg 88%
    02:00 +18°C° 0 mm 2 m/s 756 mmHg 87%
    03:00 +18°C° 0 mm 2 m/s 756 mmHg 86%
    04:00 +18°C° 0 mm 2 m/s 757 mmHg 84%
    05:00 +18°C° 0 mm 3 m/s 757 mmHg 82%
    06:00 +19°C° 0 mm 3 m/s 757 mmHg 81%
    07:00 +20°C° 0 mm 3 m/s 757 mmHg 80%
    08:00 +22°C° 0 mm 3 m/s 757 mmHg 78%
    09:00 +24°C° 0,1 mm 3 m/s 757 mmHg 77%
    10:00 +25°C° 0,1 mm 3 m/s 757 mmHg 76%
    11:00 +26°C° 0,1 mm 3 m/s 757 mmHg 75%
    12:00 +26°C° 0,4 mm 3 m/s 757 mmHg 74%
    13:00 +27°C° 0,4 mm 3 m/s 757 mmHg 74%
    14:00 +28°C° 0,4 mm 3 m/s 757 mmHg 74%
    15:00 +28°C° 0,5 mm 3 m/s 757 mmHg 74%
    16:00 +28°C° 0,5 mm 2 m/s 757 mmHg 75%
    17:00 +28°C° 0,5 mm 2 m/s 757 mmHg 76%
    18:00 +27°C° 0,2 mm 2 m/s 757 mmHg 80%
    19:00 +26°C° 0,2 mm 2 m/s 758 mmHg 83%
    20:00 +24°C° 0,2 mm 1 m/s 758 mmHg 86%
    21:00 +24°C° 0 mm 2 m/s 758 mmHg 88%
    22:00 +23°C° 0 mm 2 m/s 758 mmHg 89%
    23:00 +21°C° 0 mm 2 m/s 759 mmHg 90%

    27 Juillet, Vendredi

    Heure Température Précipitation Vent Pression Humidité
    00:00 +20°C° 0 mm 2 m/s 759 mmHg 92%
    01:00 +20°C° 0 mm 2 m/s 759 mmHg 93%
    02:00 +19°C° 0 mm 2 m/s 759 mmHg 94%
    03:00 +19°C° 0 mm 2 m/s 759 mmHg 94%
    04:00 +19°C° 0 mm 2 m/s 759 mmHg 95%
    05:00 +19°C° 0 mm 2 m/s 759 mmHg 96%
    06:00 +21°C° 0 mm 2 m/s 759 mmHg 90%
    07:00 +24°C° 0 mm 2 m/s 760 mmHg 85%
    08:00 +25°C° 0 mm 3 m/s 760 mmHg 79%
    09:00 +27°C° 0 mm 3 m/s 760 mmHg 71%
    10:00 +28°C° 0 mm 3 m/s 760 mmHg 63%
    11:00 +30°C° 0 mm 4 m/s 760 mmHg 56%
    12:00 +32°C° 0 mm 4 m/s 759 mmHg 54%
    13:00 +32°C° 0 mm 4 m/s 759 mmHg 51%
    14:00 +33°C° 0 mm 4 m/s 759 mmHg 49%
    15:00 +33°C° 0,1 mm 3 m/s 759 mmHg 52%
    16:00 +31°C° 0,1 mm 3 m/s 759 mmHg 55%
    17:00 +31°C° 0,1 mm 3 m/s 759 mmHg 58%
    18:00 +29°C° 0,5 mm 3 m/s 759 mmHg 66%
    19:00 +27°C° 0,5 mm 3 m/s 759 mmHg 74%
    20:00 +25°C° 0,5 mm 3 m/s 760 mmHg 82%
    21:00 +24°C° 0 mm 3 m/s 760 mmHg 85%
    22:00 +23°C° 0 mm 2 m/s 760 mmHg 88%
    23:00 +21°C° 0 mm 2 m/s 760 mmHg 91%
    Voir plus